DW9162 Weather Reports


time (UTC)temp
F
wind
direction
speed
knots
gust
knots
rain 1hr
in
rain 24hr
in
rain mn
in
humidity
%
barometer
mb
20260506061510 69 234 0.0 0.0 0.00 0.00 0.00 59 1013.0
20260506044505 69 246 0.0 0.0 0.00 0.00 0.00 58 1012.3
20260506043002 69 246 0.0 0.0 0.00 0.00 0.00 57 1012.6
20260506041501 69 246 0.0 0.0 0.00 0.00 0.00 56 1012.7
20260506040059 69 246 0.0 0.0 0.00 0.00 0.00 55 1012.8
20260506034556 69 246 0.0 0.0 0.00 0.00 0.00 54 1012.8
20260506033050 70 246 0.0 0.0 0.00 0.00 0.00 53 1012.8
20260506031546 70 246 0.0 0.0 0.00 0.00 0.00 52 1012.9
20260506030040 70 246 0.0 0.0 0.00 0.00 0.00 50 1013.0
20260506024538 70 246 0.0 0.0 0.00 0.00 0.00 51 1012.9
20260506023050 70 246 0.0 0.0 0.00 0.00 0.00 51 1013.0
20260506021543 70 246 0.0 0.0 0.00 0.00 0.00 51 1012.8
20260506020026 71 246 0.0 0.0 0.00 0.00 0.00 52 1012.5
20260506014520 71 246 0.0 0.0 0.00 0.00 0.00 51 1012.8
20260506013015 71 246 0.0 0.0 0.00 0.00 0.00 50 1012.7
20260506011510 71 246 0.0 0.0 0.00 0.00 0.00 50 1012.4
20260506010005 71 246 0.0 0.0 0.00 0.00 0.00 49 1012.4
20260506004600 72 246 0.0 0.0 0.00 0.00 0.00 48 1012.4
20260506003057 73 246 0.0 0.0 0.00 0.00 0.00 47 1012.5
20260506001555 73 246 0.0 0.0 0.00 0.00 0.00 46 1012.6
20260506000049 74 246 0.0 0.0 0.00 0.00 0.00 45 1012.6
20260505234543 74 246 0.0 0.0 0.00 0.00 0.00 44 1012.7
20260505233039 74 246 0.0 0.0 0.00 0.00 0.00 45 1012.7
20260505231547 75 246 0.0 0.0 0.00 0.00 0.00 45 1012.6
20260505230029 75 246 0.0 0.0 0.00 0.00 0.00 43 1012.4
20260505224527 75 247 0.0 0.0 0.00 0.00 0.00 43 1012.3
20260505223020 76 247 0.0 0.0 0.00 0.00 0.00 44 1012.5
20260505221516 76 247 0.0 0.0 0.00 0.00 0.00 41 1012.6
20260505220011 77 247 0.0 0.0 0.00 0.00 0.00 43 1012.6
20260505214507 77 248 0.0 0.0 0.00 0.00 0.00 39 1012.2
20260505213007 78 277 0.0 0.0 0.00 0.00 0.00 37 1012.2
20260505211559 78 251 0.0 0.0 0.00 0.00 0.00 39 1012.5
20260505210054 78 271 0.0 0.0 0.00 0.00 0.00 39 1012.7
20260505204550 78 254 0.0 0.0 0.00 0.00 0.00 38 1012.8
20260505203105 78 250 0.0 0.0 0.00 0.00 0.00 41 1013.0
20260505201545 78 243 0.0 0.0 0.00 0.00 0.00 40 1013.2
20260505200045 78 275 0.0 0.0 0.00 0.00 0.00 42 1013.2
20260505194532 77 277 0.0 0.0 0.00 0.00 0.00 41 1013.7
20260505193032 77 230 0.0 0.0 0.00 0.00 0.00 41 1013.9
20260505191523 76 233 0.0 0.0 0.00 0.00 0.00 41 1014.0
20260505190018 76 245 0.0 0.0 0.00 0.00 0.00 42 1014.0
20260505184514 77 240 0.0 0.0 0.00 0.00 0.00 42 1014.1
20260505183017 77 225 0.0 0.0 0.00 0.00 0.00 43 1014.2
20260505181506 77 243 0.0 0.0 0.00 0.00 0.00 44 1014.3
20260505180001 77 239 0.0 0.0 0.00 0.00 0.00 42 1014.6
20260505174604 76 242 0.0 0.0 0.00 0.00 0.00 43 1015.0
20260505173057 76 240 0.0 0.0 0.00 0.00 0.00 42 1015.2
20260505171550 75 246 0.0 0.0 0.00 0.00 0.00 44 1015.5
20260505164542 74 252 0.0 0.0 0.00 0.00 0.00 47 1015.4
20260505163037 73 267 0.0 0.0 0.00 0.00 0.00 51 1015.1
20260505161531 72 217 0.0 0.0 0.00 0.00 0.00 51 1015.2
20260505153017 69 216 0.0 0.0 0.00 0.00 0.00 59 1015.8
20260505151518 68 211 0.0 0.0 0.00 0.00 0.00 60 1015.6
20260505124529 55 213 0.0 0.0 0.00 0.00 0.00 100 1015.5
20260505123025 54 213 0.0 0.0 0.00 0.00 0.00 100 1015.4
20260505121520 53 213 0.0 0.0 0.00 0.00 0.00 100 1015.1
20260505120015 52 213 0.0 0.0 0.00 0.00 0.00 100 1015.1
20260505114514 51 213 0.0 0.0 0.00 0.00 0.00 7 1015.0
20260505113016 51 213 0.0 0.0 0.00 0.00 0.00 15 1014.7
20260505111507 51 213 0.0 0.0 0.00 0.00 0.00 23 1014.5
20260505101501 52 213 0.0 0.0 0.00 0.00 0.00 28 1014.2
20260505094559 52 213 0.0 0.0 0.00 0.00 0.00 26 1014.5
20260505093058 52 213 0.0 0.0 0.00 0.00 0.00 28 1014.2
20260505091557 52 213 0.0 0.0 0.00 0.00 0.00 31 1014.1
20260505084554 53 213 0.0 0.0 0.00 0.00 0.00 37 1014.5
20260505083056 53 213 0.0 0.0 0.00 0.00 0.00 39 1014.5
20260505081549 53 213 0.0 0.0 0.00 0.00 0.00 43 1014.5
20260505080047 53 213 0.0 0.0 0.00 0.00 0.00 41 1014.5
20260505074545 54 213 0.0 0.0 0.00 0.00 0.00 44 1014.4
20260505073044 54 213 0.0 0.0 0.00 0.00 0.00 45 1014.5
20260505071543 54 213 0.0 0.0 0.00 0.00 0.00 47 1014.6